Location: Arroyo de Fuente Vieja
(40.4902°N, 4.1175°W)
Time: 06:40:29
(UTC+00:00)

IRS-1C Rocket - Pass Details

Date: 18 April 2024
Orbit: 799 x 806 km, 98.8° (Epoch: 22 May)

Event Time Altitude Azimuth Distance (km) Brightness Sun altitude
Exits shadow 21:23:39 49° 194° (SSW) 1,028 4.4 -24.8°
Maximum altitude 21:24:58 70° 257° (WSW) 859 4.2 -25.0°
Drops below altitude 10° 21:30:15 10° 342° (NNW) 2,395 7.4 -25.7°
Sets 21:32:37 0° 344° (NNW) 3,329 8.2 -26.0°
